Location: Pedro
(43.9050°N, 104.3408°W)
Time: 12:16:15
(UTC+00:00)

A-11 Canister half - Pass Details

Date: 04 June 2022
Orbit: 1513 x 1687 km, 47.2° (Epoch: 02 July)

Event Time Altitude Azimuth Distance (km) Brightness Sun altitude
Exits shadow 09:32:47 - 172° (S) 4,757 11.2 -14.5°
Reaches altitude 10° 09:37:37 10° 151° (SSE) 3,851 10.9 -14.0°
Maximum altitude 09:41:59 14° 124° (ESE) 3,517 11.0 -13.5°
Drops below altitude 10° 09:46:18 10° 96° (E) 3,796 11.5 -13.0°
Sets 09:51:24 0° 74° (ENE) 4,748 12.6 -12.4°
